Вернуться в каталог

CZ-6A DEB

АктивенSSO
NORAD 54293·DEBRIS·🇨🇳 China

Запущен Nov 11, 2022 с Taiyuan Satellite Launch Center

Loading…

Ближайшие Пролёты (ближайшие 24 часа)

TLE

СвежийSource: Space-Track

Эпоха: Sep 14, 2026, 07:41 UTC

1 54293U 22151AL  26257.32056700  .00000272  00000-0  13601-3 0  9994
2 54293  98.7516 281.8924 0039033 228.6202 131.1618 14.24350105198919

Отслеживайте CZ-6A DEB в реальном времени с AllMySat

Download on the App Store